Location: Gleizolles
(44.4833°N, 6.7667°E)
Time: 00:46:17
(UTC+00:00)

Vanguard 2 Rocket - Pass Details

Date: 23 June 2024
Orbit: 555 x 3302 km, 32.9° (Epoch: 24 July)

Event Time Altitude Azimuth Distance (km) Brightness Sun altitude
Rises 06:03:05 0° 272° (W) 7,277 10.9 21.0°
Reaches altitude 10° 06:08:29 10° 267° (W) 6,152 10.6 21.9°
Maximum altitude 06:25:23 44° 204° (SSW) 3,220 9.7 24.9°
Drops below altitude 10° 06:36:37 10° 137° (SE) 4,163 10.9 26.8°
Sets 06:39:31 0° 131° (SE) 4,828 11.2 27.4°
